STARLINK-38065

Last updated on Sun Aug 09 2026 00:02:04 GMT+0000 (Coordinated Universal Time)

1 69982U 26159H 26220.55852759 .00163260 00000+0 10705-2 0 9997 2 69982 97.2828 60.5082 0003822 84.8012 275.3690 15.75272178 5700
UTC large
Height (km)
Speed (km/s)
/
Latitude / Longitude
Inclination (degrees)
Orbital Period (minutes)
Azimuth
Elevation
Range (km)
Doppler Factor

Next 0 passes for location: London (51.5072 / 0.1276)

No passes found over London.
STARLINK-38065